This is the latest recevied weather packets stored in our database for station/object HB9FHL-13. If no packets are shown the sender has not sent any weather packets the latest 10 day(s).
| Time | Temp. | Humidity | Pressure | Rain* | Wind** | Luminosity | Snow |
|---|---|---|---|---|---|---|---|
| 1777683514 | 15° C | - | 1025.7 hPa | 0 mm | - | - | - |
| 1777683213 | 15.56° C | - | 1021.6 hPa | 0 mm | - | - | - |
| 1777682913 | 15° C | - | 1028.5 hPa | 0 mm | - | - | - |
| 1777682612 | 16.11° C | - | 1021.5 hPa | 0 mm | - | - | - |
| 1777682312 | 15° C | - | 1021.5 hPa | 0 mm | - | - | - |
| 1777682011 | 15.56° C | - | 1025.2 hPa | 0 mm | - | - | - |
| 1777681711 | 15° C | - | 1022.1 hPa | 0 mm | - | - | - |
| 1777681410 | 14.44° C | - | 1024.5 hPa | 0 mm | - | - | - |
| 1777681110 | 14.44° C | - | 1025.7 hPa | 0 mm | - | - | - |
| 1777680808 | 13.89° C | - | 1024.9 hPa | 0 mm | - | - | - |
| 1777680508 | 15° C | - | 1028.8 hPa | 0 mm | - | - | - |
| 1777680207 | 16.11° C | - | 1023.2 hPa | 0 mm | - | - | - |
| 1777679907 | 15.56° C | - | 1023.1 hPa | 0 mm | - | - | - |
| 1777679606 | 16.11° C | - | 1025.4 hPa | 0 mm | - | - | - |
| 1777679306 | 16.67° C | - | 1021 hPa | 0 mm | - | - | - |
| 1777679005 | 16.67° C | - | 1024.2 hPa | 0 mm | - | - | - |
| 1777678705 | 16.67° C | - | 1026.3 hPa | 0 mm | - | - | - |
| 1777678404 | 16.67° C | - | 1020.1 hPa | 0 mm | - | - | - |
| 1777678104 | 16.67° C | - | 1021.1 hPa | 0 mm | - | - | - |
| 1777677803 | 16.67° C | - | 1025 hPa | 0 mm | - | - | - |
| 1777677503 | 17.22° C | - | 1028.1 hPa | 0 mm | - | - | - |
| 1777677201 | 17.78° C | - | 1025.4 hPa | 0 mm | - | - | - |
| 1777676901 | 17.78° C | - | 1021 hPa | 0 mm | - | - | - |
| 1777676600 | 16.67° C | - | 1029 hPa | 0 mm | - | - | - |
| 1777676300 | 17.78° C | - | 1023.3 hPa | 0 mm | - | - | - |
* Rain since midnight (hover to see other rain measurements)
** Current wind speed in m/s (hover to see current wind gust speed)